Location: Isle of Man Observatory
(54.1776°N, 4.6264°W)
Time: 07:21:43
(UTC+02:00)

ISS - Pass Details

Date: 15 May 2026
Orbit: 416 x 422 km, 51.6° (Epoch: 11 June)

Event Time Altitude Azimuth Distance (km) Brightness Sun altitude
Rises 23:53:57 0° 265° (W) 2,357 0.5 -11.0°
Reaches altitude 10° 23:56:04 10° 261° (W) 1,494 -0.6 -11.2°
Maximum altitude 23:59:21 55° 183° (S) 506 -3.7 -11.5°
Enters shadow 00:02:18 12° 105° (ESE) 1,363 -1.6 -11.7°
